This demonstration page uses our WeatherBlox Daily Observations layout. Learn more.

Left ArrowRight Arrow

39.12711, -84.51439

Hourly Observations for July 2, 2018

Temp ( °F °C ) Dew Point ( °F °C ) Humidity (%) Winds ( mph kmh ) Pressure ( in mb ) Visibility ( mi km ) Precip ( " mm )
12:33 am 00:33 Partly Cloudy with Nearby Thunderstorms 75 23.9 73 22.8 94 94 W 8 13 30.00 1016 10 16 0.00 0.00
12:48 am 00:48 Partly Cloudy 75 24 73 23 94 94 SSE 7 11 30.00 1016 10 16 0.00 0.00
12:53 am 00:53 Mostly Clear 75 23.9 73 22.8 94 94 SSE 3 6 30.01 1016 10 16 0.00 0.00
1:53 am 01:53 Clear 75 23.9 73 22.8 94 94 Calm 30.00 1016 10 16 0.00 0.00
2:53 am 02:53 Clear 73 22.8 72 22.2 96 96 Calm 29.98 1015 10 16 0.00 0.00
3:53 am 03:53 Clear 73 22.8 72 22.2 96 96 Calm 29.98 1015 10 16 0.00 0.00
4:53 am 04:53 Clear 71 21.7 71 21.7 100 100 Calm 29.99 1016 10 16 0.00 0.00
5:53 am 05:53 Clear 71 21.7 71 21.7 100 100 Calm 30.00 1016 10 16 0.00 0.00
6:53 am 06:53 Partly Cloudy 72 22.2 72 22.2 100 100 Calm 30.02 1017 10 16 0.00 0.00
7:53 am 07:53 Partly Cloudy 75 23.9 73 22.8 94 94 Calm 30.03 1017 10 16 0.00 0.03
8:53 am 08:53 Mostly Sunny 77 25 74 23.3 90 90 SSE 5 7 30.04 1017 10 16 0.00 0.00
9:53 am 09:53 Mostly Sunny 80 26.7 75 23.9 85 85 S 7 11 30.04 1017 10 16 0.00 0.00
10:53 am 10:53 Mostly Sunny 83 28.3 77 25 82 82 VRB 6 9 30.03 1017 10 16 0.00 0.00
11:53 am 11:53 Mostly Sunny 84 28.9 78 25.6 82 82 S 5 7 30.03 1017 10 16 0.00 0.00
12:47 pm 12:47 Mostly Cloudy with Thunderstorms 88 31 79 26 75 75 S 6 9 30.00 1016 10 16 0.00 0.00
12:53 pm 12:53 Mostly Cloudy with Thunderstorms 86 30 78 25.6 77 77 S 3 6 30.03 1017 10 16 0.00 0.00
1:53 pm 13:53 Mostly Sunny 84 28.9 73 22.8 70 70 Calm 30.03 1017 10 16 0.01 0.25
2:53 pm 14:53 Mostly Sunny 84 28.9 75 23.9 74 74 ENE 7 11 30.01 1016 10 16 0.00 0.00
3:07 pm 15:07 Partly Cloudy with Thunderstorms 84 28.9 74 23.3 72 72 N 5 7 30.00 1016 10 16 0.00 0.00
3:53 pm 15:53 Mostly Cloudy with Thunderstorms 81 27.2 71 21.7 72 72 WNW 5 7 30.01 1016 10 16 0.00 0.03
4:49 pm 16:49 Mostly Sunny 81 27 73 23 79 79 E 6 9 30.03 1017 10 16 0.01 0.25
4:53 pm 16:53 Mostly Sunny 80 26.7 73 22.8 79 79 ESE 6 9 30.05 1018 10 16 0.01 0.25
5:53 pm 17:53 Mostly Sunny 78 25.6 74 23.3 87 87 SSW 8 13 30.04 1017 10 16 0.00 0.00
6:53 pm 18:53 Mostly Sunny 79 26.1 74 23.3 85 85 Calm 30.02 1017 10 16 0.00 0.00
7:53 pm 19:53 Sunny 79 26.1 74 23.3 85 85 SSW 3 6 30.03 1017 10 16 0.00 0.00
8:53 pm 20:53 Sunny 78 25.6 74 23.3 87 87 Calm 30.04 1017 10 16 0.00 0.00
9:53 pm 21:53 Clear 75 23.9 73 22.8 94 94 SW 3 6 30.06 1018 10 16 0.00 0.00
10:53 pm 22:53 Clear 75 23.9 74 23.3 96 96 SSW 3 6 30.09 1019 10 16 0.00 0.00
11:53 pm 23:53 Clear 73 22.8 73 22.8 100 100 Calm 30.11 1020 9 14 0.00 0.00

Powered by AerisWeather